{"data":{"norad_id":69804,"epoch":"2026-09-19T19:02:23.534016Z","epoch_age_seconds":82688,"freshness":"FRESH","line1":"1 69804U 26153E   26262.79332794 -.01794648  00000+0 -13466+1 0  9996","line2":"2 69804  88.9971 351.5556 0003424  20.2703 339.8610 13.98780198 10946","mean_motion":13.98780198,"eccentricity":0.0003424,"inclination_deg":88.9971,"raan_deg":351.5556,"arg_perigee_deg":20.2703,"mean_anomaly_deg":339.861,"bstar":-1.3466,"rev_number":1094,"period_min":102.94683911446,"perigee_km":895.53081371677,"apogee_km":900.5135275168,"semimajor_km":7276.1591706168,"source":"CELESTRAK","updated_at":"2026-09-20T09:00:25.119833Z"}}